User: anonymous   Login
Location: Unspecified
(0.0000°N, 0.0000°E)
Time: 16:11:04
(UTC+00:00)
Language:

DSP F17 - Orbit

View from above orbital plane
View from above orbital plane
View from above satellite
View from above satellite

Ground track
Ground track

The orbit data is extracted from the following two-line orbital elements,

1 23435U 94084A   20056.49489355 -.00000166 +00000-0 +00000-0 0  9996
2 23435 014.5370 012.9334 0001887 045.3230 178.0403 01.00270676009856
Epoch (UTC): 25 February 2020 11:52:38
Eccentricity: 0.0001887
inclination: 14.5370°
perigee height: 35778 km
apogee height: 35794 km
right ascension of ascending node: 12.9334°
argument of perigee: 45.3230°
revolutions per day: 1.00270676
mean anomaly at epoch: 178.0403°
orbit number at epoch: 985

The dashed part of the orbit path shows where the satellite is in the earth's shadow,  

DLR